TimeCST,TemperatureF,Dew PointF,Humidity,Sea Level PressureIn,VisibilityMPH,Wind Direction,Wind SpeedMPH,Gust SpeedMPH,PrecipitationIn,Events,Conditions,WindDirDegrees,DateUTC
12:00 AM,69,60,64,29.87,12,ENE,3.5,,,,,70,2012-12-13 06:00:00
12:00 AM,68.0,59.0,73,30.03,-9999.0,ENE,3.5,-,N/A,,Clear,70,2012-12-13 06:00:00
1:00 AM,68.0,59.0,73,30.01,-9999.0,ESE,9.2,-,N/A,,Clear,110,2012-12-13 07:00:00
2:00 AM,69.8,59.0,68,30.00,6.2,East,5.8,-,N/A,,Scattered Clouds,100,2012-12-13 08:00:00
3:00 AM,69,60,65,29.81,12,East,5.8,,,,Scattered Clouds,80,2012-12-13 09:00:00
3:00 AM,69.8,60.8,73,29.99,6.2,East,5.8,-,N/A,,Scattered Clouds,80,2012-12-13 09:00:00
4:00 AM,69.8,59.0,68,29.99,6.2,ESE,9.2,-,N/A,,Scattered Clouds,110,2012-12-13 10:00:00
5:00 AM,68.0,60.8,78,29.99,6.2,East,8.1,-,N/A,,Mostly Cloudy,90,2012-12-13 11:00:00
6:00 AM,68,60,69,29.87,9,East,11.5,,,,Scattered Clouds,100,2012-12-13 12:00:00
6:00 AM,68.0,60.8,78,30.01,6.2,East,11.5,23.0,N/A,,Mostly Cloudy,100,2012-12-13 12:00:00
7:00 AM,69.8,59.0,68,30.03,6.2,East,15.0,-,N/A,,Mostly Cloudy,100,2012-12-13 13:00:00
8:00 AM,73.4,59.0,61,30.04,6.2,East,11.5,23.0,N/A,,Mostly Cloudy,100,2012-12-13 14:00:00
9:00 AM,76,60,49,29.88,12,East,12.7,,,,Scattered Clouds,100,2012-12-13 15:00:00
9:00 AM,77.0,60.8,57,30.04,6.2,East,12.7,25.3,N/A,,Mostly Cloudy,100,2012-12-13 15:00:00
10:00 AM,78.8,60.8,54,30.04,6.2,East,13.8,-,N/A,,Scattered Clouds,100,2012-12-13 16:00:00
10:30 AM,78.8,59.0,51,30.03,6.2,East,16.1,29.9,N/A,,Scattered Clouds,80,2012-12-13 16:30:00
11:00 AM,78.8,59.0,51,30.03,6.2,ENE,15.0,27.6,N/A,,Scattered Clouds,70,2012-12-13 17:00:00
12:00 PM,78,59,42,29.86,12,ENE,17.3,,,,Scattered Clouds,70,2012-12-13 18:00:00
12:00 PM,78.8,59.0,51,30.02,6.2,ENE,17.3,28.8,N/A,,Scattered Clouds,70,2012-12-13 18:00:00
1:00 PM,78.8,57.2,47,29.99,6.2,East,13.8,25.3,N/A,,Scattered Clouds,100,2012-12-13 19:00:00
2:00 PM,78.8,57.2,47,29.98,6.2,ESE,12.7,24.2,N/A,,Mostly Cloudy,110,2012-12-13 20:00:00
3:00 PM,78,56,37,29.80,12,ESE,12.7,,,,Scattered Clouds,110,2012-12-13 21:00:00
3:00 PM,78.8,57.2,47,29.96,6.2,ESE,12.7,-,N/A,,Scattered Clouds,110,2012-12-13 21:00:00
4:00 PM,75.2,59.0,57,29.97,6.2,SE,11.5,23.0,N/A,,Scattered Clouds,130,2012-12-13 22:00:00
5:00 PM,73.4,59.0,61,29.98,6.2,ESE,11.5,23.0,N/A,,Scattered Clouds,110,2012-12-13 23:00:00
7:00 PM,69.8,59.0,68,30.01,-9999.0,East,10.4,21.9,N/A,,Clear,100,2012-12-14 01:00:00
8:00 PM,69.8,59.0,68,30.04,-9999.0,ESE,11.5,23.0,N/A,,Clear,110,2012-12-14 02:00:00
9:00 PM,70,58,58,29.88,12,East,8.1,,,,,80,2012-12-14 03:00:00
9:00 PM,69.8,59.0,68,30.05,-9999.0,East,8.1,-,N/A,,Clear,80,2012-12-14 03:00:00
10:00 PM,69.8,57.2,64,30.06,-9999.0,ESE,9.2,-,N/A,,Clear,110,2012-12-14 04:00:00
11:00 PM,68.0,57.2,68,30.06,-9999.0,ENE,4.6,-,N/A,,Clear,70,2012-12-14 05:00:00